星链-2697 (STARLINK-2697 )

导读

STARLINK-2697是美国SpaceX公司星链(Starlink)星座的组网卫星,于2021年5月9日发射升空,属于星链计划低轨卫星互联网星座的组成部分,承担着为全球提供高速互联网接入服务的任务,依托低轨卫星星座架构,助力实现全球范围的网络覆盖,推动卫星互联网技术发展。

基本信息
目录编号:
48474
目录名称:
STARLINK-2697
国际标识:
2021-040AY
轨道中心:
EARTH
卫星名称:
星链-2697
卫星全名:
星链-2697 (STARLINK-2697 )
卫星状态:
在轨 (已飞行1866 天)
发射日期:
2021-05-09 UTC
国别 :
美国 (US)
星等 :
--
轨道信息
数据来源 国际轨道数据 AOE轨道数据
星历时间 2026-06-18T10:11:03+0800
12小时前
查看轨道信息
2026-06-17T00:00:00+0800
1天前
查看轨道信息
半长轴 6848.877km 6848.914km
偏心率 0.0001274 0.0001453
轨道倾角 53.161° 53.159°
近地点辐角 86.642° 128.077°
升交点赤经 84.674° 91.305°
平近点角 273.473° 293.671°
近地点 469.867km 469.781km
远地点 471.613km 471.773km
周期 94.013分钟 94.014分钟
每日圈数 15.317 15.316878
详细信息
固有亮度:
5
最大亮度:
2.5
卫星平台:
Starlink V1.0
覆盖范围:
全球
运营商:
太空探索技术公司
运营商所在国:
美国
制造商(研发单位):
太空探索技术公司
制造商所在国:
美国
使用方式:
暂无
卫星简介
星链(Starlink)计划是由太空探索技术公司(SpaceX)提出的一个巨型低轨卫星互联网星座项目,计划在2019年至2024年间在太空搭建由约1.2万颗卫星组成的“星链”网络,其中1584颗将部署在地球上空550千米处的近地轨道,并从2020年开始工作。该卫星仍在工作。
2D轨道图
3D轨道图
轨道高度分析图
轨道倾角分析图
轨道综合分析图
查看轨道综合分析图